Wind_Speed
12 11 11 11 11 11 11 10 10 10 10 9 9 9 9 9 10 10 10 10 10 10 10 10 10 10 10 9 9 10 9 8 8 9 9 9 9 9 10 10 10 10 11
13 12 12 12 12 12 12 12 11 11 11 11 10 10 10 10 11 11 11 11 11 11 11 11 11 11 11 11 10 10 10 10 9 10 10 10 10 10 11 11 12 12 12
14 14 13 13 13 13 13 12 12 11 11 11 11 11 11 11 11 11 11 11 11 11 12 12 12 12 12 12 12 11 11 11 12 12 12 12 12 12 13 13 14 14 14
15 15 15 14 14 14 14 14 13 13 12 12 12 12 12 12 12 12 12 12 12 12 13 13 13 13 14 14 14 14 13 13 14 14 14 13 14 14 14 15 15 15 15
17 17 16 16 16 15 15 15 15 14 14 14 14 14 14 14 14 14 14 14 14 14 14 15 14 14 15 15 16 16 15 15 15 15 16 16 16 16 16 16 16 17 17
19 19 18 17 17 16 16 16 16 16 16 15 16 16 15 15 15 15 15 15 15 16 16 17 16 16 16 16 17 17 17 17 16 16 17 18 18 18 18 18 18 19 20
20 20 20 19 18 18 18 17 17 18 18 17 18 17 17 17 17 16 16 17 17 17 17 18 18 18 18 18 19 19 19 19 19 18 18 19 20 21 21 21 21 22 22
22 22 22 21 20 19 18 18 18 19 19 19 19 19 19 19 19 19 18 18 18 19 19 19 19 19 19 20 20 21 20 20 21 21 21 21 22 22 23 23 23 24 24
22 23 23 22 22 21 20 19 19 20 20 20 20 20 20 21 21 21 21 20 21 20 20 20 21 21 21 21 21 21 22 22 22 22 23 23 23 24 24 25 25 25 25
23 23 23 23 22 22 21 21 21 21 22 22 21 22 22 22 23 23 22 23 23 22 22 22 22 22 22 22 22 23 23 23 23 24 24 25 25 26 26 26 27 27 28
23 24 24 24 23 23 23 23 23 23 24 24 23 24 24 24 25 25 24 24 24 24 23 23 24 23 23 23 23 24 24 24 25 25 26 26 27 27 28 28 28 29 29
24 24 25 25 24 24 24 24 24 25 25 25 25 25 26 26 27 27 26 26 26 26 25 25 25 26 25 25 25 25 26 26 27 27 27 27 28 28 29 29 29 29 30
25 25 25 25 25 25 25 26 26 26 26 26 27 27 27 27 27 28 27 27 27 27 27 26 26 27 27 28 27 27 27 28 28 28 28 29 29 29 29 30 31 31 31
26 26 26 26 26 26 26 27 27 27 27 27 28 28 28 28 28 28 29 28 28 28 28 28 28 28 29 29 29 29 29 30 29 29 30 29 29 30 30 31 32 32 33
28 28 28 27 27 28 28 28 28 28 29 29 30 30 30 30 30 30 30 30 30 30 31 31 30 30 31 31 31 31 31 30 31 31 31 31 31 31 32 33 33 33 33
29 29 29 28 28 29 29 30 30 30 30 31 31 31 32 32 31 32 32 32 32 32 32 32 33 33 33 33 33 32 32 32 32 32 32 33 33 33 33 34 35 34 33
29 29 30 30 30 30 30 31 31 31 32 32 32 33 33 34 34 34 34 34 34 33 33 34 34 34 35 34 34 34 34 33 33 33 33 33 34 34 34 34 34 35 35
30 31 31 31 31 31 32 32 32 32 32 33 34 34 35 36 36 35 36 35 35 35 36 36 36 36 36 36 36 36 35 35 34 35 34 34 35 35 35 35 35 35 36
30 30 31 31 32 32 32 33 33 33 33 34 35 35 35 36 36 36 37 37 37 38 38 38 38 38 38 38 38 38 38 37 36 36 36 36 35 36 36 36 35 35 36
29 30 31 31 32 33 34 34 34 34 34 35 36 36 36 36 37 38 38 38 39 40 40 40 40 40 40 40 40 40 40 39 38 38 38 37 37 36 37 37 37 36 37
30 31 32 32 32 33 33 33 34 35 35 36 36 37 37 37 38 39 40 40 40 41 41 41 42 42 42 42 42 41 41 41 40 40 40 39 38 37 37 38 38 38 38
32 33 33 33 33 34 35 35 36 36 37 37 38 39 39 39 39 40 41 42 42 42 43 43 43 44 44 44 43 43 42 41 41 40 40 40 40 39 38 37 37 38 37
34 34 34 34 35 36 36 37 38 38 38 39 39 40 41 41 42 42 42 42 42 43 44 44 44 44 44 44 43 43 42 41 41 41 41 41 41 40 39 38 38 38 39
35 36 36 36 36 36 37 38 38 39 39 40 41 41 42 42 43 43 43 43 44 44 45 45 45 45 45 44 44 43 43 42 41 41 41 41 41 41 41 40 39 39 39
37 37 38 38 38 38 38 39 39 40 41 41 42 42 42 43 43 43 43 44 44 45 45 45 46 46 46 45 44 44 44 44 43 42 41 41 41 41 41 41 41 41 41
38 38 39 39 40 39 40 41 41 42 42 43 43 43 43 43 44 44 44 45 45 45 45 45 45 45 45 45 45 45 45 45 44 43 42 42 42 42 42 42 42 42 42
Wind_Direction
245 245 245 244 244 245 247 251 254 255 257 260 263 264 268 270 270 271 271 272 273 274 275 278 280 281 280 281 280 274 267 264 262 262 261 264 265 265 266 267 268 266 266
246 245 246 247 246 245 248 252 256 258 259 261 264 265 267 269 271 271 269 270 270 272 274 276 276 278 279 280 278 274 269 266 265 264 261 260 264 267 269 272 271 267 266
247 248 249 250 248 247 249 252 255 256 258 260 262 264 267 269 271 272 268 267 268 270 272 274 276 277 278 277 276 275 271 270 267 266 263 263 264 267 270 271 271 270 273
247 249 250 249 249 250 250 252 254 254 255 258 259 261 265 268 270 270 268 268 268 270 273 275 276 277 277 277 276 276 274 272 271 268 264 265 268 270 272 275 275 274 276
247 249 250 250 251 251 252 254 254 254 254 257 260 262 265 267 269 269 268 269 269 270 272 274 276 277 276 276 277 277 275 273 274 271 268 266 268 270 273 275 277 279 279
249 250 252 253 254 255 256 256 255 254 255 258 260 263 266 266 268 268 268 270 271 272 273 273 275 276 276 276 276 276 277 275 273 270 270 270 270 270 272 273 276 281 281
251 252 253 254 255 256 257 258 258 257 257 258 260 263 265 266 267 268 270 272 273 272 273 274 275 275 276 277 276 276 275 273 274 271 271 272 271 270 271 275 277 280 281
252 253 252 254 256 256 257 259 259 259 259 260 261 263 264 265 266 267 269 272 273 273 274 274 277 279 278 278 276 274 274 274 275 274 275 274 273 273 274 276 278 280 280
253 254 254 256 257 257 257 259 261 260 260 261 262 263 265 265 265 266 268 270 271 273 273 274 276 278 277 278 277 275 275 275 275 275 277 278 278 276 277 277 277 277 278
253 254 255 257 258 259 259 260 262 261 261 262 263 264 265 266 266 267 268 269 272 272 272 273 275 276 276 277 276 275 276 275 274 275 277 279 279 278 278 277 278 278 278
254 254 254 255 256 258 260 262 263 262 262 262 263 264 264 266 266 267 269 270 271 272 272 272 273 275 276 277 277 276 276 275 274 274 276 278 278 279 279 279 279 279 279
254 255 255 255 256 258 260 262 263 263 262 263 263 264 265 266 267 268 269 269 270 271 272 272 273 274 275 276 276 276 276 276 276 275 276 277 277 278 278 279 279 278 279
254 256 258 257 257 258 260 261 262 262 262 264 265 266 266 266 267 268 269 269 269 270 271 272 273 274 275 276 276 277 277 276 276 277 277 277 277 276 277 278 279 279 279
255 256 258 257 257 259 261 261 262 262 262 264 266 266 265 266 267 268 269 270 270 270 272 272 273 274 275 276 276 277 278 278 277 277 277 278 276 274 275 276 278 278 278
256 256 257 256 258 259 261 263 264 263 262 264 266 266 266 266 267 267 268 270 271 272 272 273 273 274 275 275 275 277 278 278 278 278 277 276 275 275 275 276 277 277 276
257 257 257 257 259 260 261 262 263 264 264 264 266 266 266 266 267 268 268 270 271 272 272 272 273 275 275 275 275 276 277 278 279 279 278 276 275 276 276 276 276 275 274
257 257 257 257 259 260 261 263 264 265 264 265 265 266 265 266 267 268 268 269 270 271 272 272 273 273 274 275 275 275 275 276 277 278 278 278 277 277 277 277 276 274 273
257 258 258 258 261 262 263 264 265 267 267 266 266 267 267 267 267 268 269 269 270 271 272 273 273 273 273 275 275 274 274 276 276 276 276 276 276 277 277 277 277 275 273
259 258 259 261 262 263 264 265 266 267 268 267 267 268 268 268 269 269 269 269 270 272 272 273 273 273 273 274 273 273 273 275 275 275 277 276 277 278 277 277 277 275 274
261 260 261 263 263 264 264 266 266 268 268 269 269 269 270 270 270 270 270 270 270 272 273 273 273 273 274 274 273 273 273 273 274 275 276 276 277 278 277 276 276 276 275
263 262 263 264 265 265 265 266 266 267 268 268 269 269 270 270 270 271 270 271 271 272 273 274 273 273 273 274 274 274 273 273 273 275 274 275 276 278 278 276 276 276 275
263 264 264 264 265 266 266 267 267 268 269 269 270 270 270 270 271 271 272 272 272 272 273 273 273 273 273 274 274 274 273 273 274 275 275 275 276 277 277 277 276 276 275
263 263 264 264 265 266 267 267 268 268 270 271 271 271 271 271 271 272 272 272 272 272 272 272 273 273 273 272 272 273 273 273 273 274 275 275 275 276 277 277 277 276 276
263 264 264 265 266 268 268 268 268 269 271 272 271 271 271 271 272 272 272 271 272 272 272 273 273 272 272 271 271 272 273 273 272 272 273 274 274 275 276 278 277 277 277
264 264 264 265 267 268 269 270 270 270 271 271 272 272 271 271 271 271 271 272 272 272 273 272 272 271 271 270 270 271 272 272 272 272 272 272 273 274 275 276 277 277 277
264 265 265 266 267 268 270 271 271 271 272 272 272 271 271 271 271 271 272 273 273 274 274 273 271 271 270 269 269 271 272 272 272 272 272 273 273 273 275 275 276 276 277
Height
5836 5836 5837 5837 5838 5839 5840 5840 5841 5842 5843 5843 5844 5845 5845 5846 5846 5847 5847 5848 5848 5848 5849 5849 5849 5849 5849 5850 5850 5851 5851 5852 5852 5853 5853 5854 5854 5854 5855 5855 5855 5856 5856
5833 5834 5835 5835 5836 5837 5837 5838 5839 5840 5841 5841 5842 5842 5843 5843 5844 5845 5845 5845 5846 5846 5846 5847 5847 5847 5848 5848 5848 5849 5849 5850 5850 5851 5851 5852 5852 5853 5853 5853 5853 5853 5853
5831 5832 5833 5833 5834 5835 5835 5836 5836 5837 5838 5839 5839 5840 5841 5841 5842 5842 5843 5843 5843 5844 5844 5845 5845 5845 5845 5846 5846 5846 5847 5847 5848 5848 5849 5849 5850 5850 5850 5851 5851 5851 5851
5828 5829 5830 5831 5831 5832 5833 5833 5834 5835 5836 5836 5837 5837 5838 5839 5839 5839 5840 5840 5841 5841 5841 5842 5842 5843 5843 5843 5843 5844 5844 5845 5845 5846 5846 5846 5847 5847 5848 5848 5848 5848 5848
5825 5826 5827 5828 5828 5829 5830 5831 5831 5832 5833 5833 5834 5835 5835 5836 5836 5836 5837 5838 5838 5839 5839 5839 5839 5840 5840 5840 5840 5841 5841 5842 5842 5842 5843 5843 5844 5844 5844 5845 5845 5845 5845
5821 5822 5823 5824 5825 5826 5827 5828 5828 5829 5830 5830 5831 5832 5832 5832 5833 5833 5834 5835 5835 5836 5836 5836 5836 5837 5837 5837 5837 5837 5838 5838 5839 5839 5839 5840 5840 5840 5841 5841 5841 5841 5841
5817 5819 5820 5821 5822 5823 5824 5824 5825 5826 5826 5827 5828 5828 5828 5829 5830 5830 5831 5831 5832 5832 5832 5832 5833 5833 5833 5833 5833 5833 5834 5834 5835 5835 5835 5836 5836 5836 5836 5836 5836 5836 5836
5813 5815 5816 5817 5818 5819 5820 5821 5821 5822 5823 5823 5824 5824 5825 5825 5826 5827 5827 5827 5828 5828 5829 5829 5829 5829 5829 5829 5829 5829 5830 5830 5830 5831 5831 5831 5831 5831 5831 5832 5831 5831 5831
5808 5810 5811 5813 5814 5815 5816 5817 5817 5818 5819 5819 5820 5820 5820 5821 5822 5822 5823 5823 5824 5824 5824 5824 5824 5824 5824 5824 5824 5824 5825 5825 5826 5826 5826 5827 5826 5826 5826 5826 5826 5826 5826
5803 5805 5806 5808 5809 5810 5811 5812 5813 5813 5814 5815 5815 5816 5816 5817 5817 5818 5818 5819 5819 5819 5820 5820 5820 5820 5820 5820 5820 5820 5820 5820 5821 5821 5821 5821 5821 5821 5821 5821 5820 5820 5820
5799 5800 5801 5803 5804 5805 5806 5807 5808 5808 5809 5810 5810 5811 5811 5812 5812 5813 5813 5813 5814 5814 5815 5815 5815 5815 5815 5815 5815 5815 5815 5815 5816 5816 5816 5815 5815 5815 5815 5814 5814 5814 5813
5794 5795 5796 5798 5799 5801 5801 5802 5803 5803 5804 5804 5805 5805 5806 5806 5807 5807 5807 5808 5808 5809 5809 5809 5809 5809 5809 5809 5809 5809 5809 5809 5810 5810 5810 5809 5809 5809 5808 5808 5807 5807 5806
5789 5790 5791 5792 5794 5795 5796 5797 5797 5798 5798 5798 5799 5799 5800 5800 5801 5801 5801 5802 5802 5803 5803 5803 5803 5803 5803 5803 5803 5803 5803 5803 5804 5804 5803 5803 5802 5802 5801 5801 5800 5800 5799
5783 5784 5785 5786 5788 5789 5790 5791 5791 5792 5792 5792 5793 5793 5794 5794 5795 5795 5795 5795 5796 5796 5796 5796 5797 5797 5797 5797 5797 5797 5797 5797 5797 5797 5797 5796 5796 5795 5795 5794 5793 5792 5792
5777 5778 5779 5780 5782 5783 5784 5784 5785 5785 5786 5786 5786 5787 5787 5788 5788 5788 5789 5789 5789 5789 5790 5790 5790 5790 5790 5790 5790 5790 5790 5790 5790 5790 5789 5789 5788 5788 5787 5786 5785 5784 5784
5770 5772 5773 5774 5775 5776 5777 5778 5778 5779 5779 5779 5780 5780 5780 5781 5781 5781 5782 5782 5782 5782 5782 5782 5783 5783 5783 5783 5783 5783 5783 5782 5782 5782 5781 5781 5780 5780 5779 5778 5777 5776 5776
5763 5765 5766 5767 5768 5769 5770 5770 5771 5771 5772 5772 5772 5773 5773 5773 5773 5774 5774 5774 5774 5774 5775 5775 5775 5775 5775 5775 5775 5775 5774 5774 5774 5774 5773 5773 5772 5772 5771 5770 5769 5768 5768
5756 5757 5759 5760 5761 5762 5762 5763 5763 5763 5764 5764 5764 5765 5765 5765 5765 5765 5766 5766 5766 5766 5766 5767 5767 5767 5767 5767 5767 5766 5766 5766 5766 5765 5765 5764 5764 5763 5763 5762 5761 5760 5759
5749 5750 5751 5752 5753 5754 5754 5755 5755 5755 5756 5756 5756 5756 5756 5756 5756 5757 5757 5757 5757 5758 5758 5758 5758 5758 5758 5758 5758 5758 5757 5757 5757 5756 5756 5755 5755 5755 5754 5753 5753 5752 5751
5742 5743 5744 5745 5745 5745 5746 5747 5747 5747 5747 5747 5748 5748 5747 5747 5747 5747 5748 5748 5748 5748 5748 5748 5748 5748 5748 5748 5748 5748 5748 5748 5748 5748 5747 5747 5746 5746 5745 5745 5744 5743 5743
5735 5736 5737 5737 5737 5737 5737 5738 5738 5739 5739 5739 5738 5738 5738 5738 5738 5738 5738 5738 5738 5738 5738 5738 5738 5738 5738 5738 5738 5739 5739 5738 5738 5738 5738 5738 5737 5737 5736 5736 5735 5735 5734
5727 5727 5728 5728 5728 5729 5729 5729 5729 5729 5729 5729 5729 5728 5728 5728 5728 5728 5727 5727 5727 5728 5728 5728 5728 5727 5728 5728 5728 5728 5729 5730 5729 5729 5729 5728 5728 5727 5727 5726 5726 5726 5725
5718 5719 5719 5719 5720 5720 5720 5720 5720 5719 5719 5719 5719 5718 5718 5717 5717 5717 5717 5716 5716 5716 5717 5717 5716 5716 5717 5717 5717 5717 5718 5720 5720 5720 5719 5719 5718 5718 5718 5717 5717 5716 5716
5709 5710 5710 5710 5710 5710 5710 5710 5710 5710 5710 5709 5708 5707 5706 5706 5705 5705 5705 5705 5705 5705 5705 5705 5705 5705 5705 5706 5706 5706 5707 5708 5709 5710 5710 5709 5708 5708 5708 5708 5707 5707 5706
5700 5700 5701 5701 5701 5701 5700 5700 5700 5699 5699 5698 5697 5696 5695 5694 5694 5694 5694 5694 5694 5693 5693 5693 5693 5693 5694 5695 5695 5696 5696 5697 5697 5698 5699 5699 5699 5698 5698 5698 5697 5697 5696
5690 5691 5691 5691 5691 5690 5690 5689 5689 5688 5687 5686 5686 5685 5684 5683 5683 5682 5682 5682 5682 5682 5681 5681 5681 5681 5682 5683 5684 5684 5685 5686 5686 5686 5687 5688 5688 5688 5687 5687 5687 5686 5686